Weather in Bowral

Australia     34°28′38″S   150°25′12″E
temp.,
°C
wind,
m/s
gust,
m/s
humid.,
%
clouds,
%
prec.,
mm/h
press.,
hPa
HPBL,
m
24 october, sun
sun2423:00+15w009554 2.9 101211
02:00+12wsw4119717 0.6 1013509
05:00+9sw27965 0.7 1014212
08:00+10sw26825 0.1 1015453
11:00+17wsw35413 0.1 10141650
14:00+20w46285 0.0 10132545
17:00+18wsw353517 0.0 10132291
20:00+8se118824 0.1 101712
25 october, mon
mon2523:00+8nw128954 0.1 101847
02:00+5wnw11970 0.0 101727
05:00+4wnw11930 0.0 101623
08:00+8w38590 0.0 1017493
11:00+15wsw35280 0.0 10151675
14:00+18w35221 0.0 10132335
17:00+17wsw25305 0.0 10132269
20:00+6se11875 0.0 101814
26 october, tue
tue2623:00+6wsw108826 0.0 102012
02:00+5wnw11960 0.0 102011
05:00+5nnw11966 0.0 102015
08:00+10nne247210 0.0 1020599
11:00+17n22433 0.0 10181517
14:00+21nw13335 0.0 10152160
17:00+16e32545 0.0 1016641
20:00+8ene12988 0.0 102153
27 october, wed
wed2723:00+7nne149944 0.0 102284
02:00+8nne159734 0.0 1020173
05:00+7n119988 0.0 102021
08:00+11nnw24895 0.0 1020272
11:00+20nw23310 0.0 10181220
14:00+25w35190 0.0 10152015
17:00+23wsw352826 0.0 10141247
20:00+14n226897 0.0 101726
28 october, thu
thu2823:00+12nw2288100 0.0 101826
02:00+12nw218483 0.0 101624
05:00+12nw226553 0.0 101522
08:00+19wnw13405 0.0 1015115
11:00+26w352054 0.0 10141504
14:00+27wsw3523100 0.0 10122013
17:00+25wsw2534100 0.0 1012718
20:00+18n1154100 0.0 101312